BEIDOU-2 G1

Last updated on Thu Oct 30 2025 00:02:48 GMT+0000 (Coordinated Universal Time)

1 36287U 10001A 25302.49889785 -.00000268 00000+0 00000+0 0 9993 2 36287 3.7504 60.7819 0003013 245.2765 52.0936 1.00268827 57850
UTC large
Height (km)
Speed (km/s)
/
Latitude / Longitude
Inclination (degrees)
Orbital Period (minutes)
Azimuth
Elevation
Range (km)
Doppler Factor

Next 0 passes for location: London (51.5072 / 0.1276)

Sorry there are no passes over London.